Regional Weather Roundup
Issued by NWS

Home | Current Version | Previous Version | Graphics & Text | Print | Product List | Glossary On
Versions: 1 2 3 4 5 6 7 8 9 10 11 12 13 14 15 16 17 18 19 20 21 22 23 24 25 26 27 28 29 30 31 32 33 34 35 36 37 38 39 40 41 42 43 44 45 46 47 48 49 50
000
ASUS45 KTFX 280719
RWRMT
MONTANA HOURLY WEATHER ROUNDUP
NATIONAL WEATHER SERVICE GREAT FALLS MT
1219 AM MST SAT FEB 28 2015

NOTE: "FAIR" INDICATES FEW OR NO CLOUDS BELOW 12000 FEET WITH NO
SIGNIFICANT WEATHER AND/OR OBSTRUCTIONS TO VISIBILITY.

* THESE STATIONS ARE NOT UNDER NWS QUALITY CONTROL. THEY DO NOT
   REPORT WEATHER SUCH AS PRECIPITATION OR FOG.

MTZ001>007-043-280800-
WEST OF THE DIVIDE
CITY           SKY/WX    TMP DP  RH WIND       PRES   REMARKS
KALISPELL      PTCLDY    23   7  50 NE18G24   30.04R WCI   9
MISSOULA       CLOUDY    25   7  46 E17       30.00R WCI  12
BUTTE          LGT SNOW  14   9  80 NW3       29.89S VSB 3
MULLAN PASS    FAIR      16   7  67 E7        29.78R WCI   6
* ANACONDA     MOCLDY    14   5  67 N14        N/A   WCI  -1
* ESSEX        N/A       12   3  67 SW4        N/A
* EUREKA APT   CLEAR     25   5  42 E5        30.09R WCI  19
* HAMILTON APT MOCLDY    25   9  50 NW14      29.91R WCI  13
* LIBBY APT    PTCLDY    28   5  37 N5        30.06R WCI  22
* LINCOLN      N/A       13   3  64 E11G20     N/A
* LOOKOUT PASS N/A       23   9  55 SE2        N/A
* POLSON       N/A       24   8  50 NE3        N/A
* RONAN APT    PTCLDY    28  10  47 NE14       N/A   WCI  17
* SEELEY LAKE  N/A       17   4  56 S2         N/A
* THOMP F APT  PTCLDY    19   9  65 N5         N/A   WCI  12
$$

MTZ008-052>055-280800-
SOUTHWEST MONTANA
CITY           SKY/WX    TMP DP  RH WIND       PRES   REMARKS
BOZEMAN        CLOUDY    18   9  68 NW5       29.97R WCI  11
DILLON         CLOUDY    16   7  67 NE22      29.85R WCI  -2
* W YELLOWSTON PTCLDY     8   1  73 N/A        N/A
* THREE FORKS  PTCLDY    18   7  62 N11G20     N/A   WCI   6
* TWIN BRIDGES MOCLDY    18   3  52 S21G28     N/A   WCI   1
* BOULDER HILL N/A        9   4  80 N13        N/A   WCI  -7
* MONIDA PASS  N/A       15   8  74 NE11       N/A   WCI   2
* RAYNOLDS PAS N/A        8   8 100 N9G14      N/A   WCI  -5
* WHITEHALL    N/A       17   7  65 NE6G17     N/A   WCI   8
* WISE RIVER   N/A       18   6  59 E11G18     N/A   WCI   6
$$

MTZ009>010-012-014-046-048-049-054-280800-
EAST SLOPES AND CENTRAL MONTANA
CITY           SKY/WX    TMP DP  RH WIND       PRES   REMARKS
CUT BANK       LGT SNOW  10   9  96 NW5       30.10S WCI   1
GREAT FALLS    LGT SNOW  16  10  77 CALM      30.10R
HELENA         CLOUDY    18   9  68 NW8       30.06R WCI   8
MALMSTROM AFB  LGT SNOW  16  12  84 N3        30.12R
* CONRAD       PTCLDY    16  10  77 N8         N/A   WCI   5
* DEARBORN     N/A       16  11  81 S3         N/A
* EAST GLACIER N/A        9   6  87 SE7        N/A   WCI  -2
* MONARCH      N/A        7   3  83 NW7        N/A   WCI  -5
* PENDROY      N/A       12   9  88 N14G19     N/A   WCI  -4
* ROGERS PASS  N/A        7   4  87 SE4G9      N/A
* SWEET GRASS  N/A       10   9  96 NE7        N/A   WCI  -1
* WHITE SULPH  N/A        4  -1  79 NE2        N/A
$$

MTZ011-013-016-021-035-040-045-047-050-051-280800-
NORTH CENTRAL MONTANA
CITY           SKY/WX    TMP DP  RH WIND       PRES   REMARKS
HAVRE          LGT SNOW  14   9  80 W14       30.15F WCI  -1
LEWISTOWN      LGT SNOW  12   9  88 W10       30.04R WCI  -1
* N BAR RANCH  CLOUDY    12   5  73 NW18G25   30.00R WCI  -5
* CHINOOK      CLEAR     14   9  80 W6        30.16S WCI   5
* FORT BENTON  PTCLDY    16   9  74 NW3       30.18R
* CHESTER      N/A       13   7  77 SE5        N/A   WCI   5
* DENTON       N/A       12   8  84 NW9G18     N/A
* GEYSER       N/A       11   6  80 W19        N/A   WCI  -7
* JUDITH GAP   N/A        9   8  96 N26        N/A   WCI -12
* LOMA         N/A       14  10  84 W5         N/A   WCI   6
$$

MTZ017>020-022>027-061-062-280800-
NORTHEAST MONTANA
CITY           SKY/WX    TMP DP  RH WIND       PRES   REMARKS
GLASGOW        PTCLDY     9   0  66 NW10      30.11R WCI  -5
GLENDIVE       CLEAR     12   7  80 NW14G20   30.03S WCI  -4
JORDAN         CLEAR      9   3  76 NW8       30.09R WCI  -3
SIDNEY         CLOUDY    14   7  73 W13       30.07R
WOLF POINT     CLOUDY    12  -2  53 N5        30.12R WCI   4
* BEAVER HILL  N/A       12   6  77 W9         N/A
* CIRCLE       N/A        9   4  80 NW4        N/A
* LINDSAY DVD  N/A        8   4  84 W15        N/A   WCI  -9
* NAVAJO       N/A        3  -5  69 NW13       N/A   WCI -14
* PLENTYWOOD A PTCLDY     0  -6  75 NW12      30.07R WCI -17
* POPLAR APT   PTCLDY    10   1  67 NW8       30.11R WCI  -2
* SACO         N/A        9   3  76 NW4        N/A
* SCOBEY APT   PTCLDY     0 -13  53 N/A        N/A
$$

MTZ028>042-056>058-280800-
SOUTHCENTRAL AND SOUTHEAST MONTANA
CITY           SKY/WX    TMP DP  RH WIND       PRES   REMARKS
BAKER          PTCLDY    14   9  80 W9        30.00R WCI   2
BILLINGS       CLOUDY    16   7  67 SE5       30.05R WCI   8
LIVINGSTON     CLOUDY    16   9  74 E10       29.97R WCI   4
MILES CITY     MOCLDY     9   3  76 NW7       30.07R WCI  -2
* BIG TIMBER A PTCLDY    12   7  80 E3        30.00S
* FORSYTH APT  CLEAR     14   7  73 W6        30.09S WCI   5
* LAUREL APT   PTCLDY    14   3  61 N/A        N/A
* ROUNDUP APT  PTCLDY    16   3  56 N/A        N/A
* ALZADA       N/A        9   5  84 W5         N/A
* HYSHAM       N/A       12   2  64 W2         N/A
* LAME DEER    N/A        7   1  76 NW5        N/A   WCI  -2
* REED POINT   N/A       18  10  71 N/A        N/A
* ROSCOE HILL  N/A       10   5  80 NE6        N/A
$$

REGIONAL REPORTS...DAKOTAS
CITY           SKY/WX    TMP DP  RH WIND       PRES   REMARKS
WILLISTON      PTCLDY     5   1  83 NE3       30.04S
DICKINSON      PTCLDY    10   3  73 S10       29.98F WCI  -4
BEACH          CLOUDY    16  10  77 W8        30.00S WCI   5
CROSBY         MOCLDY     0  -2  91 NW12      30.07R WCI -17
TIOGA          CLOUDY    12   7  80 CALM      30.04F
WATFORD CITY   CLOUDY    12   7  80 N5        30.01F WCI   4
BISMARCK       MOCLDY     9   0  66 SE9       30.13F WCI  -4
GRAND FORKS    PTCLDY     3  -4  72 S12       30.30F WCI -14
FARGO          PTCLDY     9  -2  61 S14       30.35F WCI  -7
BUFFALO SD     PTCLDY    12   7  80 W3        29.91S
RAPID CITY     PTCLDY    10   7  88 SE9       30.01S WCI  -3
$$

REGIONAL REPORTS...WYOMING/IDAHO/WASHINGTON
CITY           SKY/WX    TMP DP  RH WIND       PRES   REMARKS
GILLETTE       PTCLDY    10   7  88 NW8       29.94R WCI  -2
SHERIDAN       PTCLDY    10   1  67 NW10      30.01R WCI  -4
CODY           MOCLDY    12   7  80 E7        29.91S WCI   1
YELLOWSTONE LA PTCLDY    -4  -9  79 NW3       29.77S
SALMON         CLOUDY    30  12  47 E15       29.78R WCI  19
MULLAN PASS    FAIR      16   7  67 E7        29.78S WCI   6
SAND POINT     PTCLDY    32   9  38 N22G31    29.96R WCI  19
SPOKANE        MOCLDY    34  16  48 NE12      29.89R WCI  25
$$

REGIONAL REPORTS...ALBERTA
CITY           SKY/WX    TMP DP  RH WIND       PRES   REMARKS
CALGARY        N/A       14   7  73 W5        30.12F WCI   6
LETHBRIDGE     LGT SNOW  12   9  88 W9        30.17S
MEDICINE HAT   MOCLDY     5   3  91 CALM      30.21R
EDMONTON       N/A        3  -2  79 SW2       30.17S
WATERTON GATE  N/A       12   9  88 E2         N/A
CARDSTON       N/A       12  10  92 NW5        N/A   WCI   4
MILK RIVER     N/A       10   9  96 NE7        N/A   WCI  -1
$$

REGIONAL REPORTS...SASKATCHEWAN
CITY           SKY/WX    TMP DP  RH WIND       PRES   REMARKS
SWIFT CURRENT  LGT SNOW   3   1  91 NW13      30.09S WCI -14
REGINA         FAIR     -13 -18  78 W3        30.12S
VAL MARIE      N/A       10   5  80 NW2        N/A
CORONACH       N/A       -2  -8  75 NW8        N/A   WCI -17

$$




USA.gov is the U.S. government's official web portal to all federal, state and local government web resources and services.